Location: Caseificio
(44.7500°N, 11.0500°E)
Time: 23:18:14
(UTC+00:00)

NPP - Pass Details

Date: 26 May 2022
Orbit: 826 x 828 km, 98.7° (Epoch: 26 June)

Event Time Altitude Azimuth Distance (km) Brightness Sun altitude
Rises 01:49:28 0° 7° (N) 3,377 7.9 -15.1°
Reaches altitude 10° 01:51:56 10° 1° (N) 2,440 6.9 -14.8°
Maximum altitude 01:56:58 42° 292° (WNW) 1,177 4.3 -14.3°
Enters shadow 02:00:20 19° 232° (SW) 1,851 4.9 -13.9°
